Simultaneous Nadir Overpasses (SNOs) Predictions

Prediction of SNOs between GOES-15 and NOAA-20 Satellite Orbit:

Table of predicted SNOs for the next 14.0 days since TLE Epoch: 10/28/2023
Index Date Time (GOES-15) GOES-15 Lat,Lon NOAA-20 Lat,Lon Distance(km) Time Diff (sec)
1 10/28/2023 20:46:11 0.18, 67.23 -0.28, 69.38 244.92 80
2 10/30/2023 09:10:56 -0.15, 65.60 -0.50, 63.98 185.05 80
3 10/31/2023 08:49:36 -0.18, 64.55 0.68, 68.46 446.15 80
4 11/01/2023 21:11:32 0.15, 62.93 0.09, 63.10 19.50 80
5 11/03/2023 09:36:16 -0.12, 61.33 -0.92, 57.70 412.88 80
6 11/04/2023 09:14:56 -0.14, 60.27 0.27, 62.19 218.01 80
7 11/05/2023 21:39:31 0.12, 58.65 0.55, 56.83 207.42 80
8 11/06/2023 21:18:12 0.14, 57.61 -0.70, 61.31 422.00 80
9 11/08/2023 09:42:56 -0.11, 56.01 -0.12, 55.91 10.69 80
10 11/09/2023 22:04:51 0.09, 54.37 0.94, 50.56 434.77 80
11 11/10/2023 21:43:31 0.11, 53.33 -0.26, 55.04 194.34 80
